Flag for U.S.A. Weather past 2 weeks in Unalaska, Alaska, U.S.A.

Now
54 °F

More clouds than sun.


Feels Like: 53 °F
Forecast: 49 / 55 °F
Wind: 6 mph from Northwest

Location: Dutch Harbor

Current Time: Sep 4, 2015 at 1:21:20 PM

Latest Report: Sep 4, 2015 at 12:56 PM


Visibility: 10 mi

Pressure: 30.07 "Hg

Humidity: 77%

Dew point: 47 °F

Location of UnalaskaLocation

Historic Weather in Unalaska — Graph

°F

Unalaska temperature yesterday

Maximum temperature yesterday: 58 °F (at 1:56 PM)
Minimum temperature yesterday: 51 °F (at 3:56 AM)
Average temperature yesterday: 54 °F

Past Weeks' High & Low Weather Summary

 TemperatureHumidityPressure
High71 °F (Aug 26, 2:56 PM)97% (Sep 2, 9:56 AM)30.53 "Hg (Sep 2, 9:56 AM)
Low47 °F (Aug 24, 2:56 AM)60% (Aug 25, 8:56 PM)29.79 "Hg (Sep 2, 8:00 PM)
Average56 °F79%30.20 "Hg
* Reported Aug 20 12:01 PM — Sep 4 11:56 AM, Unalaska, Weather by CustomWeather, © 2015

Note: Actual official high and low records may vary slightly from our data, if they occured in-between our weather recording intervals... More about our weather records

Advertising

Unalaska weather history for previous 24 hours

 ConditionsComfort  
Time TempWeatherWind HumidityBarometerVisibility
11:56 AM
Fri, Sep 4
54 °FMore clouds than sun.10 mph77%30.06 "Hg10 mi
10:56 AM54 °FPartly sunny.10 mph77%30.05 "Hg10 mi
9:56 AM53 °FOvercast.6 mph77%30.05 "Hg10 mi
8:56 AM53 °FOvercast.No wind77%30.04 "Hg10 mi
7:56 AM52 °FOvercast.3 mph77%30.02 "Hg10 mi
6:56 AM52 °FOvercast.10 mph80%30.02 "Hg10 mi
5:56 AM53 °FMostly cloudy.6 mph80%30.01 "Hg10 mi
5:04 AM54 °FOvercast.5 mph77%29.98 "Hg10 mi
4:56 AM54 °FOvercast.3 mph80%29.99 "Hg10 mi
3:56 AM54 °FPassing clouds.10 mph80%29.98 "Hg10 mi
2:56 AM54 °FPassing clouds.13 mph80%29.96 "Hg10 mi
1:56 AM54 °FMostly cloudy.8 mph80%29.94 "Hg10 mi
12:56 AM54 °FMostly cloudy.9 mph80%29.92 "Hg10 mi
11:56 PM
Thu, Sep 3
54 °FMostly cloudy.13 mph80%29.91 "Hg10 mi
10:56 PM54 °FMostly cloudy.6 mph90%29.90 "Hg10 mi
10:00 PM55 °FMostly cloudy.No wind88%29.87 "Hg10 mi
8:56 PM55 °FMostly cloudy.No wind87%29.87 "Hg10 mi
7:56 PM55 °FPartly sunny.3 mph87%29.86 "Hg10 mi
6:56 PM55 °FBroken clouds.5 mph87%29.86 "Hg10 mi
5:56 PM54 °FCloudy.3 mph86%29.87 "Hg10 mi
4:56 PM53 °FMore clouds than sun.7 mph89%29.88 "Hg10 mi
3:56 PM55 °FMore clouds than sun.3 mph83%29.89 "Hg10 mi
3:02 PM55 °FMore clouds than sun.No wind82%29.88 "Hg10 mi
1:56 PM58 °FScattered clouds.No wind78%29.89 "Hg10 mi
Weather by CustomWeather, © 2015

See weather overviewHow to use our weather pages